Location: Hanhij�rvi
(61.2833°N, 22.9833°E)
Time: 07:08:17
(UTC+00:00)

Daily predictions for brighter satellites

Satellite Brightness Start Highest point End
(mag) Time Altitude Azimuth Time Altitude Azimuth Time Altitude Azimuth
Cosmos 1818 3.8 15:13:44 10° SW 15:19:04 58° SE 15:24:27 10° ENE
IRS-1C Rocket 4.4 15:14:36 10° SE 15:19:39 48° ENE 15:24:43 10° NNW
Cosmos 1892 3.5 15:17:21 10° N 15:20:52 31° ENE 15:24:21 10° SE
RESURS DK-1 3.9 15:18:07 10° WNW 15:21:39 25° N 15:25:10 10° NE
Meteor 1-16 Rocket 4.2 15:16:13 10° S 15:21:40 63° E 15:27:00 10° NNE
Cosmos 1758 4.0 15:19:04 10° SSW 15:23:08 60° WNW 15:27:13 10° N
H-2A R/B 2.3 15:21:39 10° NNE 15:25:42 44° E 15:29:39 10° S
COSMO-SKYMED 1 4.1 15:23:54 10° NE 15:26:46 17° E 15:29:38 10° SE
Cosmos 1908 3.3 15:23:55 10° S 15:27:43 59° E 15:31:35 10° NNE
Cosmos 1486 Rocket 4.0 15:22:29 10° NNW 15:27:52 75° NE 15:33:13 10° SE
Cosmos 304 Rocket 3.8 15:23:39 10° SSW 15:28:25 77° ESE 15:33:15 10° NE
Landsat 5 3.5 15:25:44 10° NNE 15:29:32 53° ESE 15:33:24 10° S
Cosmos 1939 Rocket 3.2 15:25:54 10° SE 15:29:35 40° ENE 15:33:15 10° N
Cosmos 2297 4.4 15:24:35 10° WSW 15:30:04 49° NNW 15:35:34 10° NE
NOSS 2-1 (E) 3.4 15:26:55 10° SW 15:30:19 56° SE 15:34:27 10° ENE
Envisat 3.5 15:27:26 10° S 15:32:30 66° WSW 15:37:35 10° NNW
Cosmos 1825 Rocket 3.7 15:28:50 10° NNW 15:33:19 84° WSW 15:37:46 10° S
Meteor 2-10 4.2 15:28:23 10° SSW 15:33:25 73° WNW 15:38:32 10° NNE
Meteor 2-21 Rocket 4.5 15:27:23 10° NNW 15:33:39 82° ENE 15:39:48 10° SSE
Cosmos 1697 Rocket 4.4 15:33:47 10° ESE 15:35:46 12° E 15:37:45 10° ENE
Cosmos 1825 3.3 15:33:30 10° N 15:36:38 24° ENE 15:39:45 10° ESE
CZ-4B R/B 2.5 15:34:21 10° NE 15:37:02 23° E 15:39:38 10° SSE
Cosmos 1503 Rocket 4.1 15:32:52 10° NNW 15:38:03 61° NE 15:43:15 10° SE
Cosmos 1300 3.4 15:35:45 10° SSE 15:39:11 32° E 15:42:38 10° NNE
ERS-2 3.1 15:36:16 10° NE 15:39:27 28° E 15:42:38 10° SSE
Cosmos 1400 Rocket 4.0 15:36:58 10° SE 15:40:16 24° E 15:43:32 10° NE
NOSS 7 (H) 4.4 15:38:10 10° WNW 15:41:07 59° N 15:44:15 12° E
Cosmos 2263 4.4 15:37:12 10° SW 15:42:59 82° NW 15:48:46 10° NE
Cosmos 2056 Rocket 4.0 15:41:08 10° SW 15:46:13 59° NW 15:51:18 10° NNE
Helios 1A Rocket 3.2 15:42:40 10° SE 15:46:35 46° ENE 15:50:31 10° N
YAOGAN 1 3.1 15:44:06 10° SE 15:48:06 38° ENE 15:52:08 10° N
Cosmos 1340 2.6 15:44:19 10° NNW 15:48:07 72° ENE 15:51:54 10° SSE
NOAA 11 4.2 15:43:10 10° SSE 15:48:38 85° ENE 15:54:06 10° NNW
Cosmos 1354 Rocket 4.0 15:45:35 10° NNW 15:50:51 65° NE 15:56:06 10° SE
Cosmos 44 4.3 15:47:38 10° S 15:51:33 28° ESE 15:55:00 13° ENE
Cosmos 2297 Rocket 2.9 15:46:47 10° NW 15:52:24 60° WSW 15:57:58 10° SSE
In-Cosmos 22 Rocket 4.1 15:48:46 10° NNW 15:54:09 75° ENE 15:59:35 10° SSE
Timation 1 Rocket 4.3 15:48:09 10° NW 15:54:13 78° NE 16:00:15 10° SE
Okean O Rocket 2.3 15:50:27 10° S 15:54:45 58° WSW 15:59:05 10° NNW
Cosmos 1346 Rocket 3.0 15:51:12 10° N 15:55:07 50° ENE 15:59:01 10° SE
Cosmos 2058 3.2 15:51:13 10° N 15:55:11 45° ENE 15:59:08 10° SE
CZ-2D R/B 3.4 15:51:47 10° SE 15:55:29 50° ENE 15:59:12 10° N
Cosmos 2228 3.0 15:51:24 10° S 15:55:36 57° E 15:59:51 10° NNE
Cosmos 1726 Rocket 3.8 15:52:01 10° SSE 15:56:13 47° E 16:00:30 10° NNE
Cosmos 2369 Rocket 2.7 15:51:05 10° WSW 15:56:45 63° NW 16:02:28 10° NE
SL-4 R/B 3.9 15:54:51 10° SW 15:57:18 18° S 15:59:50 10° SE
Cosmos 2151 4.0 15:53:59 10° N 15:57:31 25° ENE 16:00:53 11° ESE
CZ-4 R/B 1.6 15:53:54 10° SE 15:57:35 44° ENE 16:01:16 10° N
Aureole 3 3.7 15:55:14 10° SSE 15:57:44 25° E 16:00:20 10° NE
Resurs 01 Rocket 3.6 15:56:30 11° NE 15:57:45 12° NE 15:59:21 10° NNE
EP 3 3.8 15:57:52 10° W 15:59:49 58° NNW 16:00:54 23° ENE
USA-17 4.4 15:58:57 10° WNW 16:02:00 62° N 16:04:23 18° E
Cosmos 1452 Rocket 3.6 15:56:52 10° SSW 16:02:11 88° NW 16:07:31 10° NE
SL-16 R/B 4.3 15:57:38 10° NNE 16:02:47 28° NW 16:07:57 10° W
Cosmos 1356 Rocket 4.0 16:00:17 10° SSW 16:04:34 63° WNW 16:08:53 10° NNE
CSL-04 Debris 4.4 16:01:16 10° SE 16:06:31 49° ENE 16:11:48 10° NNW
CZ-2C R/B 3.3 16:01:05 10° SE 16:06:38 56° ENE 16:11:59 10° NNW
Genesis I 3.6 16:02:52 10° W 16:06:41 54° N 16:09:30 17° ENE
Cosmos 1953 3.5 16:04:25 10° SW 16:08:14 44° WNW 16:12:05 10° N
Cosmos 1553 Rocket 4.3 16:03:27 10° SSE 16:09:20 43° E 16:15:10 10° NNE
Cosmos 2227 4.3 16:03:55 10° NW 16:09:30 57° NE 16:14:40 12° ESE
NOSS 3-4 (A) 3.8 16:03:48 10° WNW 16:10:23 83° SSW 16:17:45 10° ESE
NOSS 3-4 (C) 3.8 16:03:54 10° WNW 16:10:29 84° SSW 16:17:51 10° ESE
Cosmos 371 Rocket 4.3 16:06:47 10° WSW 16:11:26 44° NW 16:16:09 10° NNE
Cosmos 1606 Rocket 3.5 16:08:14 10° S 16:12:38 74° E 16:17:05 10° NNE
Cosmos 1315 Rocket 4.0 16:11:00 10° SE 16:14:01 21° E 16:15:47 16° NE
SKYMED 2 4.1 16:11:21 10° NNE 16:15:23 36° E 16:19:24 10° SSE
Ariane Rocket 3.9 16:13:29 16° E 16:16:39 29° NE 16:21:01 10° N
Meteor 2-10 Rocket 4.1 16:13:55 10° SSE 16:18:27 32° E 16:22:55 10° NNE
Cosmos 1726 4.3 16:16:46 10° WSW 16:19:59 26° WNW 16:23:12 10° N
SL-08 R/B 4.5 16:14:12 10° NNW 16:20:27 87° ENE 16:26:36 10° SSE
CZ-4C R/B 3.9 16:17:50 10° N 16:21:00 47° WNW 16:24:12 10° SW
NOSS 2-1 (C) 3.2 16:18:37 10° WSW 16:22:08 86° NNW 16:24:52 21° ENE
Cosmos 1943 Rocket 3.1 16:17:44 10° W 16:23:00 42° NNW 16:28:10 10° NE
Cosmos 292 Rocket 3.8 16:18:26 10° SSW 16:23:10 57° ESE 16:27:56 10° NE
Cosmos 1441 Rocket 4.3 16:20:24 10° N 16:23:43 26° NE 16:24:39 23° E
SeaSat 1 2.5 16:20:50 12° ESE 16:25:25 66° NE 16:30:20 10° NW
MOS 1 Rocket 4.3 16:21:46 10° NE 16:25:30 23° E 16:29:22 10° SE
Cosmos 1455 3.1 16:23:24 10° SE 16:26:35 26° E 16:28:40 17° NE
Cosmos 1745 Rocket 4.0 16:20:28 10° NNW 16:26:47 77° ENE 16:33:08 10° SSE
NOSS 2-1 (D) 3.2 16:23:53 10° WSW 16:27:24 83° NNW 16:29:59 23° ENE
H-2A R/B 2.2 16:22:08 10° SE 16:27:30 59° ENE 16:32:51 10° NNW
USA 215 3.5 16:22:49 16° ESE 16:28:12 63° S 16:34:43 10° W
Aureole 3 Rocket 3.7 16:23:42 10° S 16:28:25 63° E 16:35:08 10° NNE
Okean-O 2.6 16:27:17 10° SSE 16:31:45 88° ENE 16:36:14 10° NNW
ATLAS 2AS CENTAUR R/B 3.0 16:24:37 10° WNW 16:32:26 83° SSW 16:38:50 14° ESE
ATLAS 5 CENTAUR R/B 1.9 16:28:02 10° W 16:32:36 75° NNW 16:36:02 22° ENE
COSMOS 2455 3.3 16:26:47 10° WNW 16:32:42 50° N 16:36:35 21° ENE
Meteor 2-3 Rocket 4.2 16:27:37 10° NNW 16:33:03 41° ENE 16:37:17 16° ESE
Cosmos 2082 4.2 16:27:31 10° NW 16:33:12 62° WSW 16:38:50 10° SSE
OBJECT-B 3.1 16:35:45 13° NNE 16:35:45 13° NNE 16:36:35 10° NNE
Cosmos 1331 Rocket 3.9 16:29:29 10° SSW 16:34:38 79° ESE 16:39:51 10° NE
Cosmos 1386 Rocket 4.5 16:29:15 10° NNW 16:35:44 82° ENE 16:42:07 10° SSE
Lacrosse 5 2.3 16:32:57 10° W 16:37:53 53° S 16:41:00 22° ESE
CZ-2C R/B 4.5 16:35:22 10° NE 16:36:23 13° NE 16:36:23 13° NE
Cosmos 2278 Rocket 3.4 16:34:38 10° WNW 16:39:40 31° N 16:43:08 17° NE
Cosmos 1408 2.6 16:37:09 10° NNW 16:40:50 84° WSW 16:44:30 10° S
GEOS 3 Rocket 4.1 16:36:18 10° SE 16:41:38 64° SW 16:47:03 10° WNW
ARGOS 3.2 16:37:07 10° SE 16:42:28 59° ENE 16:47:49 10° NNW
Cosmos 1656 Rocket 4.3 16:37:49 10° WSW 16:43:23 55° NW 16:48:41 12° NE
NOSS 7 (E) 4.3 16:40:57 10° WNW 16:44:02 70° NNE 16:45:07 39° E
Cosmos 1656 4.0 16:39:57 10° S 16:45:15 45° ESE 16:49:12 18° NE
ADEOS Rocket 3.6 16:40:33 10° NNE 16:46:40 64° WNW 16:53:27 10° SW
GENESIS II 4.4 16:42:57 10° SW 16:46:56 58° SE 16:48:27 34° E
Cosmos 1844 Rocket 3.3 16:41:56 10° NW 16:47:20 42° NNE 16:50:01 26° ENE
Cosmos 1689 Rocket 2.1 16:49:49 53° ESE 16:49:49 53° ESE 16:52:29 10° S
ERBS 3.3 16:46:37 10° WSW 16:49:43 36° S 16:50:49 28° SSE
SL-08 RB Rocket 3.9 16:48:05 25° ESE 16:50:25 47° ENE 16:54:47 10° N
Cosmos 2058 Rocket 3.0 16:45:58 10° S 16:50:29 86° ESE 16:55:04 10° NNE
HJ-1C 3.3 16:49:48 26° SE 16:51:32 65° ENE 16:54:54 10° NNW
Cosmos 2184 Rocket 4.5 16:46:35 10° N 16:52:30 40° ENE 16:55:37 25° ESE
Cosmos 1076 Rocket 3.5 16:48:22 10° NNW 16:52:39 86° WSW 16:56:55 10° S
Cosmos 1777 Rocket 3.9 16:49:07 10° NNW 16:54:22 81° NE 16:58:19 18° SE
SJ 16-02 2.0 16:51:38 10° NNW 16:55:48 37° NE 16:56:44 33° ENE
Cosmos 2369 4.4 16:51:18 10° S 16:56:15 31° ESE 16:57:13 29° E
Cosmos 1709 Rocket 4.0 16:49:53 10° NNW 16:56:17 75° ENE 17:02:42 10° SSE
Cosmos 2227 Rocket 4.0 16:51:35 10° NW 16:56:34 32° WSW 17:01:31 10° S
Cosmos 1892 3.9 16:52:59 10° NNW 16:56:44 46° W 17:00:27 10° S
Cosmos 2263 Rocket 2.2 16:53:44 10° NW 16:59:29 86° NE 17:03:25 21° SE
CZ-4C R/B 2.7 16:53:12 10° WNW 16:59:37 88° SSW 17:04:27 25° ESE
Terra 4.0 16:59:43 12° NE 17:00:01 12° NNE 17:01:38 10° N
Cosmos 1633 3.7 16:57:13 10° N 16:59:32 27° NNE 16:59:32 27° NNE
RESURS DK-1 3.4 16:56:57 10° NW 17:00:44 31° NNE 17:01:39 28° NE
H-2A R/B 3.4 16:57:46 10° N 17:01:41 38° WNW 17:05:31 10° SW
Cosmos 1818 3.7 16:57:13 10° WSW 17:02:41 70° NNW 17:05:44 27° ENE
COSMO-SKYMED 1 2.4 16:59:17 10° NNE 17:03:40 79° ESE 17:08:02 10° SSW
CSL-04 Rocket 3.7 16:58:14 10° SSE 17:03:47 87° WSW 17:09:18 10° NNW
Cosmos 1939 Rocket 4.5 17:00:57 10° SSW 17:04:36 36° W 17:08:14 10° NNW
Cosmos 1844 4.2 16:59:56 10° NW 17:05:16 43° NNE 17:07:17 31° ENE
Cosmos 1110 Rocket 4.3 17:00:09 10° SW 17:05:22 69° NW 17:10:36 10° NNE
SAR-Lupe-4 3.5 17:01:51 10° NNE 17:05:28 83° WNW 17:09:03 10° SSW
Cosmos 1302 Rocket 3.9 17:01:59 10° SSW 17:07:16 79° ESE 17:12:10 12° NE
CZ-4B R/B 2.3 17:06:21 10° N 17:09:30 46° WNW 17:12:34 10° SW
SJ-6B 3.2 17:09:34 43° ENE 17:09:45 44° ENE 17:13:43 10° N
Cosmos 2074 Rocket 4.2 17:04:36 10° N 17:10:39 49° ENE 17:13:23 30° ESE
Cosmos 1825 2.6 17:08:43 10° NNW 17:12:30 62° W 17:16:14 10° S
ERS-2 3.1 17:09:39 10° NNE 17:13:12 48° WNW 17:16:43 10° SW
Cosmos 1300 4.0 17:11:09 10° SW 17:14:47 41° WNW 17:18:27 10° N
Cosmos 1400 Rocket 3.3 17:12:22 10° SSW 17:16:26 64° WNW 17:20:29 10° NNE
Cosmos 1898 Rocket 4.0 17:12:48 10° NNW 17:17:57 45° NE 17:19:10 39° ENE
Cosmos 1697 Rocket 2.9 17:13:05 10° S 17:18:23 44° ESE 17:19:40 38° E
Cosmos 883 Rocket 4.4 17:13:11 10° S 17:19:09 57° E 17:25:09 10° NNE
NOSS 2-1 (E) 3.5 17:17:05 10° W 17:20:47 69° N 17:21:52 47° ENE
YAOGAN 1 3.6 17:20:01 10° S 17:24:12 46° W 17:28:24 10° NNW
Cosmos 1766 Rocket 3.5 17:20:59 10° NNW 17:25:28 67° ENE 17:26:21 53° SE
S3M 3.9 17:19:50 10° S 17:25:59 84° ESE 17:32:15 10° NNE
Okean 3 Rocket 3.4 17:24:10 10° NNW 17:28:36 74° ENE 17:29:27 55° SE
Cosmos 2315 Rocket 4.0 17:23:42 10° S 17:29:44 57° E 17:35:49 10° NNE
EO 1 Delta rocket 4.0 17:24:51 10° NNE 17:29:59 51° E 17:30:04 50° E
Cosmos 1812 Rocket 3.4 17:26:50 10° S 17:31:13 72° E 17:35:35 10° NNE
Meteor 2-1 Rocket 4.0 17:26:24 10° S 17:31:55 82° ESE 17:37:31 10° NNE
Cosmos 44 3.1 17:27:33 10° SW 17:32:15 81° SSE 17:33:26 52° ENE
CZ-4 R/B 3.1 17:29:15 10° SSW 17:32:46 32° W 17:36:17 10° NNW
SPOT 3 Rocket 3.8 17:32:20 45° ENE 17:32:49 47° ENE 17:37:49 10° NNW
Resurs 01 Rocket 2.6 17:34:04 32° NNE 17:34:04 32° NNE 17:37:11 10° N
Cosmos 2151 3.2 17:31:02 10° NNW 17:35:15 69° W 17:37:30 26° S
PSLV R/B 4.2 17:31:34 10° NNE 17:35:46 71° WNW 17:39:54 10° SSW
SL-4 R/B 4.3 17:34:32 10° SW 17:35:53 12° SSW 17:36:32 11° SSW
ARIANE 5 R/B 4.1 17:40:02 24° NNE 17:40:02 24° NNE 17:42:40 10° N
Cosmos 2369 Rocket 3.5 17:36:33 10° W 17:41:46 34° NNW 17:44:55 20° NE
Cosmos 1980 Rocket 3.4 17:36:52 10° S 17:39:22 24° SSE 17:39:22 24° SSE
MetOp-A 4.0 17:40:22 43° SE 17:42:12 78° ENE 17:47:36 10° NNW
Cosmos 1992 Rocket 3.8 17:38:36 10° SSW 17:43:47 72° ESE 17:45:23 45° NE
Genesis I 3.5 17:40:49 10° WNW 17:44:22 58° N 17:44:22 58° N
Meteor 2-15 Rocket 4.4 17:40:27 10° SSW 17:46:37 84° WNW 17:52:49 10° NNE
CZ-2C R/B 4.4 17:41:17 10° SSW 17:46:43 43° W 17:51:57 10° NNW
Cosmos 1315 Rocket 3.0 17:46:09 10° SSW 17:50:09 73° WNW 17:51:37 38° N
SKYMED 2 4.5 17:47:31 10° N 17:51:43 48° WNW 17:55:55 10° SW
Cosmos 2154 Rocket 4.0 17:48:06 10° NNW 17:54:16 60° ENE 17:55:10 54° ESE
Ariane Rocket 3.0 17:53:41 47° SSE 17:55:14 83° WSW 18:00:23 10° NNW
Cosmos 220 Rocket 4.0 17:51:51 10° SSW 17:55:51 73° SSW 17:55:51 73° SSW
Cosmos 990 Rocket 3.9 17:54:21 10° NNW 17:59:38 73° NE 17:59:52 71° ENE
Cosmos 1441 Rocket 3.8 17:56:09 10° NNW 17:59:43 56° W 17:59:43 56° W
Meteor 2-10 Rocket 3.9 17:55:07 10° SSW 18:00:16 63° WNW 18:05:19 10° NNE
Cosmos 1408 Rocket 3.8 17:56:53 10° NNW 18:00:43 63° N 18:00:43 63° N
Cosmos 1455 3.0 17:58:16 10° SSW 18:02:00 51° WNW 18:05:47 10° N
SeaSat 1 3.6 18:00:38 23° S 18:03:13 40° WSW 18:07:53 10° NW
MOS 1 Rocket 3.3 17:59:39 10° NNE 18:04:16 82° WNW 18:09:10 10° SSW
Cosmos 2360 4.2 17:59:33 10° SSW 18:04:36 60° SSE 18:04:36 60° SSE
OBJECT-B 3.4 18:08:56 17° NNW 18:08:56 17° NNW 18:09:47 10° NNW
H-2A R/B 3.4 18:02:04 10° SSW 18:07:11 40° W 18:12:19 10° NNW
Cosmos 1943 Rocket 3.5 18:03:09 10° WNW 18:08:01 30° N 18:09:40 26° NNE
USA 215 3.8 18:10:10 39° SSE 18:11:55 48° SSW 18:18:15 10° W
NOSS 2-1 (C) 4.0 18:09:02 10° WNW 18:12:11 57° NW 18:12:11 57° NW
IRS-1A Rocket 4.5 18:10:51 38° S 18:12:59 67° WSW 18:18:31 10° NNW
Resurs 1-3 4.2 18:14:24 51° N 18:14:24 51° N 18:17:45 10° NNW
NOSS 3-3 (A) 4.1 18:10:29 10° SW 18:16:10 59° SSE 18:16:10 59° SSE
Meteor 2-3 Rocket 4.2 18:10:56 10° NNW 18:16:33 58° W 18:19:36 27° SSW
MOS 1 4.5 18:14:38 42° S 18:16:34 69° WSW 18:22:16 10° NNW
NOSS 3-3 (C) 4.1 18:10:37 10° SW 18:16:14 58° SSE 18:16:14 58° SSE
ATLAS 5 CENTAUR R/B 1.9 18:12:42 10° WNW 18:17:34 76° N 18:17:34 76° N
NOSS 2-1 (D) 4.1 18:14:18 10° WNW 18:17:19 53° NW 18:17:19 53° NW
COSMOS 2455 2.7 18:13:13 10° NW 18:19:19 77° NNE 18:19:43 73° ENE
Lacrosse 5 2.9 18:15:44 10° W 18:20:11 35° SSW 18:20:11 35° SSW
CZ-2C R/B 3.8 18:14:56 10° NNE 18:17:53 32° NNE 18:17:53 32° NNE
ATLAS 2AS CENTAUR R/B 3.8 18:15:51 10° WNW 18:22:49 40° SW 18:26:17 25° S
ARGOS 4.4 18:17:57 10° SSW 18:23:01 39° W 18:28:07 10° NNW
Cosmos 1937 Rocket 3.6 18:18:54 10° NNW 18:23:28 65° N 18:23:28 65° N
Cosmos 2278 Rocket 2.8 18:19:35 10° NW 18:24:58 44° NNE 18:24:58 44° NNE
Cosmos 1610 Rocket 4.4 18:19:24 10° NNW 18:25:50 85° ENE 18:26:36 71° SSE
SPOT 1/Viking Rocket 4.4 18:27:47 39° NNE 18:27:47 39° NNE 18:31:23 10° NNW
Cosmos 1656 4.0 18:23:14 10° WSW 18:28:50 64° NW 18:30:39 42° NNE
Cosmos 1844 Rocket 2.6 18:26:05 10° NW 18:31:40 85° WNW 18:31:40 85° WNW
Cosmos 1295 Rocket 4.3 18:27:18 10° NNW 18:33:20 80° NE 18:33:20 80° NE
SJ 16-02 2.3 18:30:15 10° NW 18:33:43 47° WNW 18:33:43 47° WNW
Terra 3.7 18:38:36 22° NNE 18:38:36 22° NNE 18:40:40 10° N
ERS-1 Rocket 4.3 18:38:50 30° NNE 18:38:50 30° NNE 18:41:44 10° NNW
Cosmos 2184 Rocket 4.3 18:32:10 10° NNW 18:38:26 66° W 18:40:24 44° SSW
RESURS DK-1 3.9 18:35:07 10° NW 18:37:32 33° NW 18:37:32 33° NW
Cosmos 2369 3.8 18:34:15 10° SW 18:39:11 67° SW 18:39:11 67° SW
Cosmos 2263 Rocket 3.7 18:38:02 10° NW 18:42:57 30° WSW 18:45:07 23° SW
Cosmos 962 Rocket 4.5 18:37:32 10° NNW 18:43:30 72° NE 18:43:30 72° NE
SJ-6B 4.5 18:45:12 34° WNW 18:45:12 34° WNW 18:48:22 10° NNW
Cosmos 1818 4.0 18:41:23 10° WNW 18:46:22 57° NNW 18:46:22 57° NNW
CZ-4C R/B 3.5 18:41:36 10° WNW 18:48:01 47° SW 18:49:38 41° SSW
Cosmos 1844 3.9 18:44:18 10° NW 18:49:10 67° WNW 18:49:10 67° WNW
Cosmos 1898 Rocket 4.2 18:55:01 10° NW 18:59:26 52° WNW 18:59:26 52° WNW
Cosmos 1697 Rocket 3.2 18:56:39 10° WSW 19:01:26 57° W 19:01:26 57° W
Cosmos 2341 Rocket 4.2 19:02:59 10° NNW 19:08:15 65° NNW 19:08:15 65° NNW
Resurs 01 Rocket 3.5 19:11:39 28° NW 19:11:39 28° NW 19:13:55 10° NNW
ATLAS CENTAUR R/B 4.5 18:45:17 10° W 19:10:51 75° SSW 19:13:45 59° SE
SPOT 3 Rocket 4.5 19:13:00 45° WNW 19:13:00 45° WNW 19:17:22 10° NNW
Cosmos 2218 Rocket 4.5 19:08:35 10° NNW 19:13:25 53° N 19:13:25 53° N
SL-8 Rocket 4.5 19:17:15 10° NNW 19:21:56 54° NNW 19:21:56 54° NNW
Cosmos 1980 Rocket 4.3 19:20:12 10° SW 19:21:13 16° SW 19:21:13 16° SW
Cosmos 2369 Rocket 3.5 19:22:01 10° NW 19:26:42 33° N 19:26:42 33° N
Cosmos 1943 Rocket 3.7 19:47:52 10° NW 19:51:11 30° NNW 19:51:11 30° NNW
CZ-2C R/B 4.2 19:55:29 10° NNE 19:59:22 33° NNW 19:59:22 33° NNW
ATLAS 5 CENTAUR R/B 4.0 19:57:13 10° WNW 19:59:06 23° WNW 19:59:06 23° WNW
COSMOS 2455 4.3 19:59:21 10° NW 20:02:51 32° WNW 20:02:51 32° WNW
Cosmos 2278 Rocket 3.8 20:03:54 10° NW 20:06:48 32° NW 20:06:48 32° NW
SJ 16-02 4.4 20:10:23 10° WNW 20:10:43 11° WNW 20:10:43 11° WNW
Terra 4.3 20:17:30 18° NNW 20:17:30 18° NNW 20:18:47 10° NNW
SL-16 R/B 4.4 21:08:45 23° NNE 21:08:45 23° NNE 21:12:36 10° NNW
Cosmos 2369 Rocket 4.4 21:06:36 10° NW 21:08:28 21° NW 21:08:28 21° NW
SL-16 R/B 4.3 22:53:51 27° N 22:53:51 27° N 22:56:32 10° NNW
Cosmos 2219 Rocket 4.4 23:11:30 20° NE 23:11:30 20° NE 23:13:17 10° NE
Cosmos 2322 Rocket 4.3 23:31:09 23° NE 23:31:09 23° NE 23:33:45 10° ENE
